Back to catalog

STARLINK-30260

AliveCommunicationsVLEO
NORAD 57524·PAYLOAD·🇺🇸 United States

Launched Aug 8, 2023 from Vandenberg Space Force Base

Loading…

Next Passes (next 24 hours)

TLE

FreshSource: CelesTrak SupGP

Epoch: Sep 14, 2026, 21:07 UTC

1 57524C 23115D   26257.88034722 -.00008376  00000+0 -30325-3 0  2579
2 57524  43.0016  13.1598 0001501 272.3057 159.9226 15.27597447    15

Track STARLINK-30260 in real time with AllMySat

Download on the App Store